When you browse on this site, cookies collect data to enhance your experience and personalize the content and advertising you see.
Visit our Privacy Policy to learn more. By continuing to use the site, you agree to this use of cookies and data.
  • In Hungary
  • List of Countries
  • For 7 days
  • Water Temperature
  • Satellite Maps
  • Weather Map
  • News
  • Weather Widgets
  • user-avatar
    Login

    Hourly Weather Przeclawka

    Today, 27 May, Monday

    Time Temperature Precipitation Wind Pressure Humidity
    00:00 +14°C° 0 mm 2 mps 730 mmHg 89%
    01:00 +13°C° 0 mm 3 mps 730 mmHg 90%
    02:00 +13°C° 0 mm 3 mps 730 mmHg 91%
    03:00 +14°C° 0 mm 2 mps 730 mmHg 91%
    04:00 +13°C° 0 mm 2 mps 729 mmHg 92%
    05:00 +14°C° 0 mm 3 mps 730 mmHg 88%
    06:00 +17°C° 0 mm 3 mps 730 mmHg 84%
    07:00 +18°C° 0 mm 3 mps 730 mmHg 81%
    08:00 +20°C° 0.3 mm 3 mps 730 mmHg 74%
    09:00 +21°C° 0.3 mm 3 mps 730 mmHg 67%
    10:00 +24°C° 0.3 mm 3 mps 730 mmHg 61%
    11:00 +24°C° 0.2 mm 3 mps 729 mmHg 58%
    12:00 +25°C° 0.2 mm 3 mps 729 mmHg 55%
    13:00 +26°C° 0.2 mm 2 mps 729 mmHg 52%
    14:00 +26°C° 0 mm 2 mps 729 mmHg 54%
    15:00 +25°C° 0 mm 2 mps 728 mmHg 57%
    16:00 +25°C° 0 mm 2 mps 728 mmHg 59%
    17:00 +24°C° 0.2 mm 2 mps 728 mmHg 65%
    18:00 +21°C° 0.2 mm 2 mps 727 mmHg 72%
    19:00 +20°C° 0.2 mm 2 mps 727 mmHg 78%
    20:00 +19°C° 0 mm 2 mps 727 mmHg 80%
    21:00 +18°C° 0 mm 2 mps 726 mmHg 82%
    22:00 +18°C° 0 mm 2 mps 726 mmHg 84%
    23:00 +17°C° 0 mm 2 mps 726 mmHg 86%

    Tomorrow, 28 May, Tuesday

    Time Temperature Precipitation Wind Pressure Humidity
    00:00 +16°C° 0 mm 2 mps 726 mmHg 87%
    01:00 +16°C° 0 mm 2 mps 725 mmHg 89%
    02:00 +15°C° 0 mm 2 mps 725 mmHg 89%
    03:00 +15°C° 0 mm 2 mps 725 mmHg 90%
    04:00 +15°C° 0 mm 2 mps 724 mmHg 90%
    05:00 +16°C° 0 mm 2 mps 724 mmHg 87%
    06:00 +17°C° 0 mm 3 mps 724 mmHg 83%
    07:00 +19°C° 0 mm 3 mps 724 mmHg 79%
    08:00 +20°C° 0.3 mm 3 mps 724 mmHg 75%
    09:00 +21°C° 0.3 mm 4 mps 724 mmHg 70%
    10:00 +23°C° 0.3 mm 4 mps 724 mmHg 66%
    11:00 +23°C° 1.1 mm 4 mps 724 mmHg 67%
    12:00 +22°C° 1.1 mm 4 mps 724 mmHg 68%
    13:00 +22°C° 1.1 mm 4 mps 723 mmHg 69%
    14:00 +22°C° 1 mm 3 mps 723 mmHg 72%
    15:00 +21°C° 1 mm 2 mps 723 mmHg 74%
    16:00 +20°C° 1 mm 2 mps 723 mmHg 77%
    17:00 +20°C° 1.1 mm 2 mps 723 mmHg 79%
    18:00 +20°C° 1.1 mm 1 mps 723 mmHg 81%
    19:00 +19°C° 1.1 mm 1 mps 723 mmHg 83%
    20:00 +18°C° 0.5 mm 1 mps 723 mmHg 84%
    21:00 +16°C° 0.5 mm 1 mps 723 mmHg 84%
    22:00 +15°C° 0.5 mm 1 mps 724 mmHg 85%
    23:00 +15°C° 0 mm 2 mps 724 mmHg 88%

    Day after tomorrow, 29 May, Wednesday

    Time Temperature Precipitation Wind Pressure Humidity
    00:00 +14°C° 0 mm 2 mps 724 mmHg 91%
    01:00 +13°C° 0 mm 3 mps 725 mmHg 93%
    02:00 +12°C° 0 mm 3 mps 725 mmHg 94%
    03:00 +12°C° 0 mm 3 mps 726 mmHg 95%
    04:00 +12°C° 0 mm 3 mps 726 mmHg 97%
    05:00 +12°C° 0.2 mm 4 mps 727 mmHg 96%
    06:00 +11°C° 0.2 mm 4 mps 728 mmHg 95%
    07:00 +10°C° 0.2 mm 5 mps 728 mmHg 94%
    08:00 +9°C° 0.2 mm 5 mps 729 mmHg 93%
    09:00 +9°C° 0.2 mm 5 mps 730 mmHg 92%
    10:00 +8°C° 0.2 mm 5 mps 730 mmHg 92%
    11:00 +9°C° 0 mm 5 mps 731 mmHg 89%
    12:00 +9°C° 0 mm 5 mps 731 mmHg 87%
    13:00 +10°C° 0 mm 5 mps 732 mmHg 84%
    14:00 +12°C° 0 mm 5 mps 732 mmHg 81%
    15:00 +12°C° 0 mm 4 mps 732 mmHg 77%
    16:00 +13°C° 0 mm 4 mps 732 mmHg 73%
    17:00 +13°C° 0 mm 4 mps 732 mmHg 76%
    18:00 +12°C° 0 mm 3 mps 732 mmHg 78%
    19:00 +12°C° 0 mm 2 mps 733 mmHg 80%
    20:00 +12°C° 0 mm 2 mps 733 mmHg 82%
    21:00 +10°C° 0 mm 2 mps 733 mmHg 84%
    22:00 +9°C° 0 mm 2 mps 733 mmHg 85%
    23:00 +9°C° 0 mm 2 mps 733 mmHg 83%

    30 May, Thursday

    Time Temperature Precipitation Wind Pressure Humidity
    00:00 +9°C° 0 mm 3 mps 734 mmHg 81%
    01:00 +9°C° 0 mm 3 mps 734 mmHg 78%
    02:00 +9°C° 0.1 mm 3 mps 734 mmHg 80%
    03:00 +8°C° 0.1 mm 3 mps 734 mmHg 81%
    04:00 +8°C° 0.1 mm 3 mps 734 mmHg 82%
    05:00 +8°C° 0.3 mm 3 mps 734 mmHg 84%
    06:00 +8°C° 0.3 mm 3 mps 734 mmHg 86%
    07:00 +8°C° 0.3 mm 3 mps 734 mmHg 88%
    08:00 +9°C° 0 mm 3 mps 735 mmHg 84%
    09:00 +10°C° 0 mm 3 mps 735 mmHg 81%
    10:00 +11°C° 0 mm 3 mps 735 mmHg 77%
    11:00 +12°C° 0 mm 3 mps 735 mmHg 71%
    12:00 +14°C° 0 mm 3 mps 735 mmHg 64%
    13:00 +16°C° 0 mm 3 mps 735 mmHg 57%
    14:00 +16°C° 0 mm 3 mps 735 mmHg 57%
    15:00 +17°C° 0 mm 3 mps 735 mmHg 56%
    16:00 +17°C° 0 mm 2 mps 735 mmHg 55%
    17:00 +16°C° 0 mm 2 mps 735 mmHg 60%
    18:00 +15°C° 0 mm 2 mps 735 mmHg 65%
    19:00 +13°C° 0 mm 2 mps 735 mmHg 70%
    20:00 +13°C° 0 mm 2 mps 735 mmHg 69%
    21:00 +12°C° 0 mm 2 mps 736 mmHg 67%
    22:00 +10°C° 0 mm 2 mps 736 mmHg 66%
    23:00 +9°C° 0 mm 2 mps 736 mmHg 67%

    31 May, Friday

    Time Temperature Precipitation Wind Pressure Humidity
    00:00 +9°C° 0 mm 2 mps 735 mmHg 69%
    01:00 +8°C° 0 mm 2 mps 735 mmHg 71%
    02:00 +8°C° 0 mm 2 mps 735 mmHg 72%
    03:00 +9°C° 0 mm 1 mps 735 mmHg 73%
    04:00 +8°C° 0 mm 1 mps 735 mmHg 73%
    05:00 +10°C° 0 mm 1 mps 735 mmHg 70%
    06:00 +12°C° 0 mm 1 mps 735 mmHg 67%
    07:00 +14°C° 0 mm 1 mps 735 mmHg 64%
    08:00 +15°C° 0 mm 1 mps 735 mmHg 61%
    09:00 +16°C° 0 mm 1 mps 735 mmHg 58%
    10:00 +19°C° 0 mm 1 mps 735 mmHg 54%
    11:00 +19°C° 0 mm 1 mps 735 mmHg 53%
    12:00 +20°C° 0 mm 1 mps 734 mmHg 52%
    13:00 +20°C° 0 mm 1 mps 734 mmHg 51%
    14:00 +20°C° 0 mm 1 mps 734 mmHg 51%
    15:00 +21°C° 0 mm 1 mps 734 mmHg 51%
    16:00 +21°C° 0 mm 1 mps 733 mmHg 52%
    17:00 +19°C° 0 mm 1 mps 733 mmHg 57%
    18:00 +16°C° 0 mm 0 mps 733 mmHg 62%
    19:00 +15°C° 0 mm 0 mps 733 mmHg 67%
    20:00 +15°C° 0 mm 1 mps 733 mmHg 70%
    21:00 +14°C° 0 mm 1 mps 733 mmHg 72%
    22:00 +13°C° 0 mm 2 mps 733 mmHg 74%
    23:00 +13°C° 0 mm 2 mps 733 mmHg 76%

    1 June, Saturday

    Time Temperature Precipitation Wind Pressure Humidity
    00:00 +13°C° 0 mm 2 mps 733 mmHg 78%
    01:00 +12°C° 0 mm 3 mps 733 mmHg 80%
    02:00 +12°C° 0.1 mm 4 mps 733 mmHg 84%
    03:00 +12°C° 0.1 mm 5 mps 733 mmHg 88%
    04:00 +11°C° 0.1 mm 6 mps 733 mmHg 92%
    05:00 +10°C° 0.1 mm 6 mps 734 mmHg 91%
    06:00 +9°C° 0.1 mm 6 mps 734 mmHg 91%
    07:00 +9°C° 0.1 mm 6 mps 734 mmHg 90%
    08:00 +9°C° 0 mm 6 mps 734 mmHg 89%
    09:00 +9°C° 0 mm 5 mps 735 mmHg 88%
    10:00 +9°C° 0 mm 5 mps 735 mmHg 86%
    11:00 +10°C° 0 mm 5 mps 735 mmHg 85%
    12:00 +10°C° 0 mm 6 mps 735 mmHg 83%
    13:00 +11°C° 0 mm 6 mps 735 mmHg 82%
    14:00 +11°C° 0 mm 6 mps 735 mmHg 80%
    15:00 +13°C° 0 mm 6 mps 735 mmHg 78%
    16:00 +14°C° 0 mm 6 mps 735 mmHg 77%
    17:00 +13°C° 0 mm 5 mps 735 mmHg 78%
    18:00 +13°C° 0 mm 4 mps 735 mmHg 80%
    19:00 +13°C° 0 mm 3 mps 735 mmHg 82%
    20:00 +12°C° 0 mm 3 mps 735 mmHg 82%
    21:00 +12°C° 0 mm 3 mps 735 mmHg 82%
    22:00 +11°C° 0 mm 3 mps 736 mmHg 83%
    23:00 +11°C° 0 mm 3 mps 735 mmHg 83%
    Show more